Regional Weather Roundup
Issued by NWS State College, PA

Home | Current Version | Previous Version | Text Only | Print | Product List | Glossary On
Versions: 1 2 3 4 5 6 7 8 9 10 11 12 13 14 15 16 17 18 19 20 21 22 23 24 25 26 27 28 29 30 31 32 33 34 35 36 37 38 39 40 41 42 43 44 45 46 47 48 49 50
000
ASUS41 KCTP 301710
RWRCTP

REGIONAL WEATHER ROUNDUP
NATIONAL WEATHER SERVICE STATE COLLEGE PA
100 PM EDT SAT APR 30 2016

Note: "fair" indicates few or no clouds below 12,000 feet with no
significant weather and/or obstructions to visibility.

* = STATION THAT DOES NOT REPORT PRECIPITATION /E.G. RAIN...SNOW...ETC/
    THUNDER OR FOG.

PAZ002>004-007>009-013>016-020>023-029>032-301800-
WESTERN PENNSYLVANIA

CITY           SKY/WX    TMP DP  RH WIND       PRES   REMARKS
ERIE           CLOUDY    53  44  71 NE12      30.13F
MEADVILLE      CLOUDY    52  43  71 VRB6      30.11F
FRANKLIN*      CLOUDY    55  45  67 E9        30.13F
NEW CASTLE     CLOUDY    59  47  64 CALM      30.10F
BEAVER COUNTY  PTSUNNY   61  48  63 E3        30.09F
BUTLER*        PTSUNNY   59  46  63 E6        30.13S
PITTSBURGH INT CLOUDY    64  46  52 E7        30.08S
PITTSBURGH     MOSUNNY   64  46  52 S5        30.07F
INDIANA*       PTSUNNY   59  48  67 SE9       30.14S
LATROBE        PTSUNNY   64  48  55 SE7       30.09F
WASHINGTON CO* MOSUNNY   63  50  63 E3        30.08S
$$

PAZ004>006-010>012-017>019-024>028-033>037-041-042-045-046-049>053-301800-
CENTRAL PENNSYLVANIA

CITY           SKY/WX    TMP DP  RH WIND       PRES   REMARKS
BRADFORD       CLOUDY    47  40  76 SE7       30.16S
DUBOIS         CLOUDY    51  43  74 E9        30.12F
CLEARFIELD     CLOUDY    51  42  71 E9        30.15F
JOHNSTOWN      CLOUDY    51  42  71 SE10      30.12S
ALTOONA        CLOUDY    47  45  93 E7        30.16S
STATE COLLEGE  CLOUDY    52  43  71 NE6       30.18R
WILLIAMSPORT   CLOUDY    54  40  59 CALM      30.18F
SELINSGROVE    CLOUDY    55  43  63 E6        30.20S
FT INDIANTOWN  CLOUDY    56  43  61 S3        30.19F
CAPITAL CITY   CLOUDY    56  43  61 SE6       30.20S
HARRISBURG     CLOUDY    58  45  62 VRB3      30.20S
YORK           CLOUDY    54  46  74 E6        30.19F
$$

PAZ038>040-043-044-047-048-054-055-060>062-067>071-301800-
EASTERN PENNSYLVANIA

CITY           SKY/WX    TMP DP  RH WIND       PRES   REMARKS
SCRANTON       CLOUDY    53  40  61 W3        30.18S
MOUNT POCONO   CLOUDY    49  37  63 S3        30.17S
ALLENTOWN      CLOUDY    56  41  57 SW5       30.20S
QUAKERTOWN*    CLOUDY    54  41  62 CALM      30.21S
READING        CLOUDY    55  40  56 CALM      30.19S
LANCASTER      CLOUDY    55  43  63 CALM      30.20S
COATESVILLE    CLOUDY    55  43  62 NE5G12    30.21S
POTTSTOWN      CLOUDY    54  41  61 CALM      30.22R
BLUE BELL      CLOUDY    54  41  62 CALM      30.20S
DOYLESTOWN     CLOUDY    54  40  59 CALM      30.20S
WILLOW GROVE   NOT AVBL
NORTH PHILA    CLOUDY    58  43  57 MISG      30.22S
PHILADELPHIA   PTSUNNY   60  40  47 VRB3      30.22S
$$




USA.gov is the U.S. government's official web portal to all federal, state and local government web resources and services.